ANZ377 NZWN-NZCH

Flight info

Callsign ANZ377
Flight time 0h 39m
Altitude 26000
Route SABDA Y622 MESIX
Aircraft B772/H-SDE2E3FGHIJ5LORVWXY/LB1D1

Departure

Time 2026-05-07 01:46
Airport Wellington International Airport (NZWN)

Arrival

Time 2026-05-07 02:25
Airport Christchurch International Airport (NZCH)
Time Latitude Longitude Altitude Speed Heading
2026-05-07 01:07 -41.32758 174.80967 31 ft 0 kts 142°
2026-05-07 01:38 -41.32749 174.80958 29 ft 4 kts 137°
2026-05-07 01:38 -41.32732 174.80932 31 ft 4 kts 119°
2026-05-07 01:39 -41.32722 174.80901 31 ft 4 kts 101°
2026-05-07 01:39 -41.32718 174.80869 28 ft 1 kts 97°
2026-05-07 01:39 -41.32714 174.80840 29 ft 4 kts 122°
2026-05-07 01:39 -41.32699 174.80820 28 ft 4 kts 163°
2026-05-07 01:40 -41.32674 174.80816 30 ft 4 kts 184°
2026-05-07 01:40 -41.32647 174.80820 31 ft 4 kts 185°
2026-05-07 01:40 -41.32638 174.80821 30 ft 0 kts 182°
2026-05-07 01:42 -41.32639 174.80821 30 ft 1 kts 182°
2026-05-07 01:42 -41.32666 174.80818 30 ft 7 kts 183°
2026-05-07 01:42 -41.32734 174.80813 31 ft 13 kts 183°
2026-05-07 01:42 -41.32843 174.80806 31 ft 17 kts 182°
2026-05-07 01:43 -41.32963 174.80799 31 ft 17 kts 182°
2026-05-07 01:43 -41.33083 174.80792 29 ft 17 kts 182°
2026-05-07 01:43 -41.33202 174.80784 31 ft 17 kts 182°
2026-05-07 01:43 -41.33322 174.80776 31 ft 17 kts 182°
2026-05-07 01:44 -41.33442 174.80769 31 ft 17 kts 184°
2026-05-07 01:44 -41.33547 174.80737 31 ft 11 kts 220°
2026-05-07 01:44 -41.33571 174.80673 31 ft 7 kts 261°
2026-05-07 01:44 -41.33550 174.80631 31 ft 4 kts 349°
2026-05-07 01:45 -41.33534 174.80633 31 ft 0 kts
2026-05-07 01:45 -41.33429 174.80641 30 ft 45 kts
2026-05-07 01:45 -41.32826 174.80681 35 ft 125 kts
2026-05-07 01:45 -41.31877 174.80748 619 ft 143 kts
2026-05-07 01:46 -41.30831 174.80821 1468 ft 158 kts 359°
2026-05-07 01:46 -41.29721 174.80892 2349 ft 165 kts 358°
2026-05-07 01:46 -41.28495 174.80968 2719 ft 190 kts 358°
2026-05-07 01:46 -41.27088 174.81004 3103 ft 209 kts 350°
2026-05-07 01:47 -41.25698 174.80446 3717 ft 211 kts 333°
2026-05-07 01:47 -41.24269 174.79797 4256 ft 218 kts 344°
2026-05-07 01:47 -41.22738 174.79325 4850 ft 230 kts 343°
2026-05-07 01:47 -41.21186 174.78797 5727 ft 231 kts 342°
2026-05-07 01:48 -41.19612 174.78254 6578 ft 235 kts 342°
2026-05-07 01:48 -41.18029 174.77705 7305 ft 240 kts 342°
2026-05-07 01:48 -41.16397 174.77137 8083 ft 241 kts 340°
2026-05-07 01:48 -41.14921 174.76097 8681 ft 245 kts 317°
2026-05-07 01:49 -41.13928 174.74255 9479 ft 250 kts 297°
2026-05-07 01:49 -41.13494 174.71985 10225 ft 261 kts 278°
2026-05-07 01:49 -41.13755 174.69459 10443 ft 299 kts 256°
2026-05-07 01:49 -41.14909 174.67031 10860 ft 331 kts 232°
2026-05-07 01:50 -41.16808 174.65103 11562 ft 352 kts 211°
2026-05-07 01:50 -41.19213 174.64381 12509 ft 371 kts 183°
2026-05-07 01:50 -41.21752 174.65152 13695 ft 382 kts 156°
2026-05-07 01:50 -41.23953 174.67134 14667 ft 381 kts 144°
2026-05-07 01:51 -41.26193 174.69080 15374 ft 388 kts 156°
2026-05-07 01:51 -41.28751 174.70284 16183 ft 392 kts 171°
2026-05-07 01:51 -41.31427 174.70887 17274 ft 389 kts 177°
2026-05-07 01:51 -41.34143 174.71299 18176 ft 395 kts 178°
2026-05-07 01:52 -41.36886 174.71495 18823 ft 394 kts 189°
2026-05-07 01:52 -41.39585 174.70875 19370 ft 398 kts 196°
2026-05-07 01:52 -41.42320 174.70134 20154 ft 404 kts 195°
2026-05-07 01:52 -41.45061 174.69456 20992 ft 408 kts 194°
2026-05-07 01:53 -41.47876 174.68798 21810 ft 414 kts 194°
2026-05-07 01:53 -41.50664 174.67844 22562 ft 413 kts 207°
2026-05-07 01:53 -41.53244 174.66157 23337 ft 414 kts 213°
2026-05-07 01:53 -41.55787 174.64290 24046 ft 420 kts 214°
2026-05-07 01:54 -41.58352 174.62393 24745 ft 424 kts 214°
2026-05-07 01:54 -41.60948 174.60509 25510 ft 425 kts 213°
2026-05-07 01:54 -41.63556 174.58656 26030 ft 424 kts 213°
2026-05-07 01:54 -41.66165 174.56827 26081 ft 424 kts 213°
2026-05-07 01:55 -41.68783 174.55004 26084 ft 424 kts 213°
2026-05-07 01:55 -41.71401 174.53182 26080 ft 424 kts 213°
2026-05-07 01:55 -41.74017 174.51358 26078 ft 424 kts 213°
2026-05-07 01:55 -41.76633 174.49534 26074 ft 424 kts 213°
2026-05-07 01:56 -41.79246 174.47708 26069 ft 423 kts 213°
2026-05-07 01:56 -41.81770 174.45726 26074 ft 419 kts 218°
2026-05-07 01:56 -41.84196 174.43556 26066 ft 418 kts 220°
2026-05-07 01:56 -41.86579 174.41318 26059 ft 418 kts 221°
2026-05-07 01:57 -41.88957 174.39064 26056 ft 418 kts 221°
2026-05-07 01:57 -41.91345 174.36816 26048 ft 419 kts 220°
2026-05-07 01:57 -41.93734 174.34587 26041 ft 419 kts 220°
2026-05-07 01:57 -41.96138 174.32364 26035 ft 419 kts 220°
2026-05-07 01:58 -41.98546 174.30149 26025 ft 419 kts 220°
2026-05-07 01:58 -42.00957 174.27938 26025 ft 419 kts 220°
2026-05-07 01:58 -42.03337 174.25758 26025 ft 419 kts 220°
2026-05-07 01:58 -42.05752 174.23546 26018 ft 419 kts 220°
2026-05-07 01:59 -42.08165 174.21335 26008 ft 419 kts 220°
2026-05-07 01:59 -42.10574 174.19123 26003 ft 419 kts 220°
2026-05-07 01:59 -42.12988 174.16907 26005 ft 419 kts 220°
2026-05-07 01:59 -42.15398 174.14692 25992 ft 419 kts 220°
2026-05-07 02:00 -42.17810 174.12473 25988 ft 419 kts 220°
2026-05-07 02:00 -42.20215 174.10257 25985 ft 419 kts 220°
2026-05-07 02:00 -42.22621 174.08039 25981 ft 419 kts 220°
2026-05-07 02:00 -42.25033 174.05812 25978 ft 419 kts 220°
2026-05-07 02:01 -42.27416 174.03610 25971 ft 420 kts 220°
2026-05-07 02:01 -42.29826 174.01380 25968 ft 420 kts 220°
2026-05-07 02:01 -42.32237 173.99146 25964 ft 421 kts 220°
2026-05-07 02:01 -42.34650 173.96908 25961 ft 421 kts 220°
2026-05-07 02:02 -42.37068 173.94664 25959 ft 422 kts 220°
2026-05-07 02:02 -42.39494 173.92411 25948 ft 423 kts 220°
2026-05-07 02:02 -42.41918 173.90157 25947 ft 423 kts 220°
2026-05-07 02:02 -42.44352 173.87892 25942 ft 424 kts 220°
2026-05-07 02:03 -42.46788 173.85623 25940 ft 425 kts 220°
2026-05-07 02:03 -42.49222 173.83353 25935 ft 425 kts 220°
2026-05-07 02:03 -42.51663 173.81075 25934 ft 426 kts 220°
2026-05-07 02:03 -42.54106 173.78793 25926 ft 427 kts 220°
2026-05-07 02:04 -42.56559 173.76500 25927 ft 427 kts 220°
2026-05-07 02:04 -42.58977 173.74237 25927 ft 427 kts 220°
2026-05-07 02:04 -42.61424 173.71944 25925 ft 427 kts 220°
2026-05-07 02:04 -42.63878 173.69644 25911 ft 425 kts 220°
2026-05-07 02:05 -42.66299 173.67375 25615 ft 420 kts 220°
2026-05-07 02:05 -42.68699 173.65122 25126 ft 418 kts 220°
2026-05-07 02:05 -42.71102 173.62868 24642 ft 421 kts 220°
2026-05-07 02:05 -42.73528 173.60592 24143 ft 424 kts 220°
2026-05-07 02:06 -42.75965 173.58301 23606 ft 428 kts 220°
2026-05-07 02:06 -42.78422 173.55987 22998 ft 431 kts 220°
2026-05-07 02:06 -42.80889 173.53659 22441 ft 429 kts 220°
2026-05-07 02:06 -42.83289 173.51387 21894 ft 422 kts 220°
2026-05-07 02:07 -42.85679 173.49120 21375 ft 415 kts 220°
2026-05-07 02:07 -42.90359 173.44678 20377 ft 403 kts 220°
2026-05-07 02:07 -42.92650 173.42502 19892 ft 398 kts 220°
2026-05-07 02:08 -42.94916 173.40347 19417 ft 395 kts 220°
2026-05-07 02:08 -42.97162 173.38210 18944 ft 392 kts 220°
2026-05-07 02:08 -42.99390 173.36088 18462 ft 390 kts 220°
2026-05-07 02:08 -43.01614 173.33970 17939 ft 388 kts 220°
2026-05-07 02:09 -43.03791 173.31893 17426 ft 385 kts 221°
2026-05-07 02:09 -43.05983 173.29803 16932 ft 382 kts 221°
2026-05-07 02:09 -43.08158 173.27727 16449 ft 379 kts 221°
2026-05-07 02:09 -43.10305 173.25662 15972 ft 372 kts 223°
2026-05-07 02:10 -43.12070 173.23263 15483 ft 346 kts 240°
2026-05-07 02:10 -43.13458 173.20616 15065 ft 341 kts 241°
2026-05-07 02:10 -43.14840 173.17975 14613 ft 340 kts 241°
2026-05-07 02:10 -43.16209 173.15389 14176 ft 339 kts 241°
2026-05-07 02:11 -43.17599 173.12786 13716 ft 338 kts 241°
2026-05-07 02:11 -43.18995 173.10190 13212 ft 337 kts 241°
2026-05-07 02:11 -43.20382 173.07618 12743 ft 335 kts 242°
2026-05-07 02:11 -43.21299 173.05920 12435 ft 333 kts 242°
2026-05-07 02:12 -43.22015 173.04594 12222 ft 331 kts 242°
2026-05-07 02:12 -43.22921 173.02918 11992 ft 328 kts 242°
2026-05-07 02:12 -43.24255 173.00448 11577 ft 325 kts 242°
2026-05-07 02:12 -43.25530 172.98084 11161 ft 323 kts 242°
2026-05-07 02:13 -43.26948 172.95813 10750 ft 328 kts 235°
2026-05-07 02:13 -43.28612 172.93641 10396 ft 328 kts 232°
2026-05-07 02:13 -43.30285 172.91579 10236 ft 317 kts 232°
2026-05-07 02:13 -43.31899 172.89581 10094 ft 307 kts 233°
2026-05-07 02:14 -43.33452 172.87629 9886 ft 300 kts 233°
2026-05-07 02:14 -43.34935 172.85740 9639 ft 287 kts 234°
2026-05-07 02:14 -43.36361 172.83911 9197 ft 273 kts 235°
2026-05-07 02:14 -43.37709 172.82170 8866 ft 259 kts 236°
2026-05-07 02:15 -43.38997 172.80495 8561 ft 251 kts 236°
2026-05-07 02:15 -43.40268 172.78826 8280 ft 257 kts 236°
2026-05-07 02:15 -43.41595 172.77075 7978 ft 271 kts 235°
2026-05-07 02:15 -43.42963 172.75294 7650 ft 266 kts 234°
2026-05-07 02:16 -43.44262 172.73618 7332 ft 252 kts 235°
2026-05-07 02:16 -43.45520 172.71987 7046 ft 247 kts 236°
2026-05-07 02:16 -43.46780 172.70332 6782 ft 257 kts 235°
2026-05-07 02:16 -43.48108 172.68576 6489 ft 269 kts 234°
2026-05-07 02:17 -43.49449 172.66830 6158 ft 260 kts 234°
2026-05-07 02:17 -43.50732 172.65171 5814 ft 247 kts 234°
2026-05-07 02:17 -43.51973 172.63551 5523 ft 246 kts 234°
2026-05-07 02:17 -43.53238 172.61881 5246 ft 261 kts 234°
2026-05-07 02:18 -43.54572 172.60122 4903 ft 263 kts 233°
2026-05-07 02:18 -43.55856 172.58453 4585 ft 249 kts 233°
2026-05-07 02:18 -43.57085 172.56853 4297 ft 237 kts 233°
2026-05-07 02:18 -43.58276 172.55288 4062 ft 238 kts 233°
2026-05-07 02:19 -43.59480 172.53704 3823 ft 237 kts 232°
2026-05-07 02:19 -43.60664 172.52152 3723 ft 235 kts 233°
2026-05-07 02:19 -43.61859 172.50575 3626 ft 240 kts 232°
2026-05-07 02:19 -43.62900 172.48845 3507 ft 227 kts 256°
2026-05-07 02:20 -43.63133 172.46807 3330 ft 211 kts 288°
2026-05-07 02:20 -43.62711 172.44982 3309 ft 195 kts 304°
2026-05-07 02:20 -43.61944 172.43476 3103 ft 189 kts 315°
2026-05-07 02:20 -43.61104 172.42139 2860 ft 183 kts 321°
2026-05-07 02:21 -43.60028 172.41402 2610 ft 172 kts 357°
2026-05-07 02:21 -43.58926 172.41896 2428 ft 168 kts 27°
2026-05-07 02:21 -43.57983 172.42783 2260 ft 161 kts 30°
2026-05-07 02:21 -43.57112 172.43702 2022 ft 151 kts 31°
2026-05-07 02:22 -43.56330 172.44599 1858 ft 140 kts 33°
2026-05-07 02:22 -43.55615 172.45425 1661 ft 126 kts 32°
2026-05-07 02:22 -43.54976 172.46164 1472 ft 116 kts 33°
2026-05-07 02:22 -43.54335 172.46909 1339 ft 120 kts 36°
2026-05-07 02:23 -43.53709 172.47638 1198 ft 119 kts 35°
2026-05-07 02:23 -43.53060 172.48388 1028 ft 125 kts 38°
2026-05-07 02:23 -43.52403 172.49151 842 ft 123 kts 41°
2026-05-07 02:23 -43.51739 172.49927 693 ft 125 kts 39°
2026-05-07 02:24 -43.51078 172.50683 468 ft 123 kts 41°
2026-05-07 02:24 -43.50430 172.51420 320 ft 118 kts 44°
2026-05-07 02:24 -43.49824 172.52134 197 ft 111 kts 44°
2026-05-07 02:24 -43.49272 172.52782 123 ft 93 kts 39°
2026-05-07 02:25 -43.48905 172.53209 115 ft 44 kts 40°
2026-05-07 02:25 -43.48776 172.53360 114 ft 18 kts 40°
2026-05-07 02:25 -43.48678 172.53473 114 ft 18 kts 40°
2026-05-07 02:25 -43.48580 172.53585 112 ft 18 kts 40°
2026-05-07 02:26 -43.48507 172.53725 110 ft 18 kts 68°
2026-05-07 02:26 -43.48468 172.53890 110 ft 18 kts 75°
2026-05-07 02:26 -43.48510 172.54011 112 ft 10 kts 154°
2026-05-07 02:26 -43.48557 172.54084 112 ft 10 kts 124°
2026-05-07 02:27 -43.48587 172.54094 112 ft 5 kts 199°
2026-05-07 02:27 -43.48618 172.54076 112 ft 5 kts 204°
2026-05-07 02:27 -43.48630 172.54068 111 ft 0 kts 205°
2026-05-07 02:27 -43.48630 172.54067 111 ft 0 kts 205°